Temperature
7 9 9 9 8 9 9 9 9 9 8 8 9 9 10 9 8 8 8 7 7 7 6 6 6 6 7 7 7 7 7 7 7 8 8 8 8 8 8 9 9 9 9 9
8 8 7 7 7 8 8 8 9 9 8 8 8 9 9 9 8 7 7 7 6 6 6 6 6 6 6 6 7 6 7 7 7 7 7 8 8 8 8 8 8 8 9 9
8 7 7 7 7 7 8 8 8 8 8 8 8 10 9 8 7 7 6 6 5 5 5 5 5 5 5 6 6 6 6 6 7 7 7 7 7 7 7 8 8 8 8 8
7 6 6 7 7 7 8 7 7 7 7 8 7 9 10 9 8 7 6 6 5 4 4 4 4 4 5 5 5 5 6 6 6 6 6 6 7 7 7 7 7 8 8 7
6 5 6 6 6 6 7 6 6 6 7 7 7 7 10 8 8 7 6 5 5 4 4 4 4 4 4 4 5 5 5 5 6 6 6 6 6 6 6 6 6 7 7 7
5 5 5 5 5 5 6 6 6 6 6 7 7 8 10 9 7 7 6 5 4 3 3 3 4 4 4 4 4 4 4 5 5 5 5 5 5 6 6 6 6 6 6 6
6 6 5 5 5 6 6 7 8 8 8 9 7 7 8 7 6 5 5 4 4 3 3 3 3 4 4 4 4 4 4 4 4 5 5 5 5 5 5 5 5 5 5 6
6 7 5 4 5 5 5 6 7 8 9 9 7 7 8 6 5 4 4 4 3 3 3 3 3 3 3 3 4 4 4 4 4 4 4 4 4 4 4 5 5 5 5 5
6 6 4 4 4 5 5 5 5 5 5 6 8 7 7 6 5 4 4 3 3 3 3 2 3 3 3 3 3 3 3 3 3 4 4 4 4 4 4 4 4 4 4 4
4 4 4 4 4 4 5 4 5 5 6 8 9 8 8 6 5 4 4 3 3 2 2 2 2 2 3 3 3 3 3 3 3 3 3 3 3 3 4 4 4 4 4 4
3 3 4 4 4 4 4 4 4 5 5 6 8 8 6 5 4 4 3 3 2 2 2 2 2 2 2 2 2 2 2 2 2 2 3 3 3 3 3 3 4 4 4 4
3 3 4 4 3 3 3 4 4 4 4 4 6 7 5 4 3 3 2 2 2 1 1 1 1 2 2 2 2 2 2 2 2 2 2 2 2 2 3 3 3 3 3 3
2 2 4 5 4 2 2 2 2 2 3 4 5 7 5 3 3 2 2 1 1 1 1 1 1 1 1 1 1 1 1 1 1 1 1 2 2 2 2 2 2 3 3 3
2 2 3 5 5 3 2 2 2 2 3 4 4 6 5 5 3 2 1 1 1 0 0 0 1 1 1 1 1 1 1 1 1 1 1 1 1 2 2 2 2 2 2 2
1 2 1 2 2 2 2 2 1 1 3 3 5 4 5 4 3 2 1 0 0 0 -0 -0 0 0 0 0 0 0 0 1 1 1 1 1 1 1 1 1 2 2 2 2
-0 1 0 1 1 1 1 2 2 2 2 2 3 3 4 3 1 1 1 0 -0 -1 -1 -1 -1 -0 -0 -0 -0 -0 -0 -0 0 0 0 0 0 1 1 1 1 1 1 2
-0 -1 1 2 0 0 2 2 1 1 1 2 3 3 3 2 1 1 -0 -1 -1 -1 -1 -1 -1 -1 -1 -1 -1 -1 -1 -1 -0 -0 -0 0 0 0 0 1 1 1 1 1
-1 -1 -0 1 1 2 4 1 1 1 1 1 1 2 2 1 0 -1 -1 -1 -1 -1 -1 -1 -1 -1 -1 -1 -1 -1 -1 -1 -1 -1 -1 -1 -0 -0 0 0 0 0 0 0
-1 -1 -0 0 1 3 3 1 -0 -0 1 1 1 1 1 -0 -0 0 -1 -1 -2 -2 -2 -2 -2 -2 -2 -2 -2 -2 -2 -2 -2 -1 -1 -1 -1 -1 -0 -0 -0 -0 -0 -0
-3 -2 -1 -0 1 3 4 0 -1 -0 1 1 -0 0 -0 -1 1 2 -1 -2 -2 -2 -2 -2 -2 -2 -2 -2 -2 -2 -2 -2 -2 -2 -2 -1 -1 -1 -1 -1 -1 -1 -1 -1
-3 -2 -1 -0 1 2 2 -1 -1 1 3 -0 -1 -1 -1 -1 -0 -1 -2 -2 -2 -2 -2 -2 -2 -2 -2 -2 -2 -2 -2 -2 -2 -2 -2 -2 -2 -2 -2 -1 -1 -1 -1 -1
-1 -1 -1 -1 0 2 -0 -1 0 2 -0 -1 -1 -2 -2 -2 -2 -2 -2 -3 -3 -3 -3 -3 -3 -3 -3 -3 -3 -3 -3 -3 -3 -2 -2 -2 -2 -2 -2 -2 -2 -2 -2 -1
-1 -0 0 0 2 1 -1 -1 -1 -1 -1 -2 -2 -2 -2 -3 -3 -3 -3 -3 -3 -3 -3 -3 -3 -3 -3 -3 -3 -3 -3 -3 -3 -3 -3 -2 -2 -2 -2 -2 -2 -2 -2 -2
-2 -3 -2 -2 -0 -1 -1 -1 -1 -2 -2 -2 -2 -2 -3 -3 -3 -3 -4 -3 -3 -3 -4 -4 -4 -4 -4 -3 -3 -3 -3 -3 -3 -3 -3 -3 -3 -3 -3 -3 -3 -3 -3 -3
-0 -3 -3 -2 -1 -1 -1 -1 -1 -2 -2 -2 -2 -3 -3 -3 -3 -4 -4 -4 -4 -4 -4 -4 -4 -4 -4 -4 -4 -3 -3 -3 -3 -3 -3 -3 -3 -3 -3 -3 -3 -3 -3 -3
-2 -2 -1 1 0 -1 -0 -1 -1 -2 -2 -3 -3 -3 -3 -4 -4 -4 -4 -4 -4 -4 -4 -4 -4 -4 -4 -4 -4 -4 -4 -4 -3 -3 -3 -3 -3 -3 -3 -3 -3 -4 -4 -4
Wind_Speed
0 1 2 3 4 5 5 7 9 8 6 8 12 15 13 9 8 7 6 5 6 7 7 6 5 4 3 3 2 3 2 2 2 2 3 3 2 2 2 2 3 3 4 4
2 2 4 3 3 4 6 7 8 7 5 7 11 14 11 6 6 5 5 5 6 7 7 6 4 3 3 2 3 3 3 3 3 3 3 3 3 2 2 2 2 3 4 4
2 2 2 2 3 4 6 7 8 9 9 6 8 9 6 4 3 3 4 5 6 6 7 6 4 4 3 3 3 3 3 3 3 3 1 1 1 1 2 2 3 3 4 4
1 2 2 2 3 5 6 5 7 8 7 4 4 6 5 4 4 4 5 5 5 6 6 6 4 4 3 3 3 2 2 3 2 2 2 2 1 2 4 3 3 2 3 4
1 2 2 3 4 5 4 5 6 7 6 6 5 6 6 2 5 6 5 5 5 5 6 5 4 3 3 2 2 2 3 2 1 1 2 3 2 2 2 2 2 2 2 3
2 2 2 3 4 3 4 4 3 3 4 5 5 6 5 2 5 5 4 5 5 5 5 5 5 3 3 3 2 2 2 2 2 1 2 3 3 3 2 2 2 2 2 3
2 1 1 2 3 0 2 2 2 3 3 4 1 5 5 3 4 5 5 5 5 4 4 4 5 4 3 3 3 2 1 2 2 2 2 3 3 4 4 3 3 3 3 3
2 2 1 2 2 2 2 2 2 4 4 4 3 6 2 2 4 5 5 5 5 5 4 5 5 5 4 3 3 3 2 2 2 2 2 3 3 3 3 4 4 4 3 4
2 2 2 2 3 2 1 1 2 2 3 5 4 4 4 2 5 6 6 5 5 6 6 5 6 5 4 4 3 3 3 3 3 3 3 3 3 3 3 3 3 3 3 3
1 3 3 2 1 1 2 0 1 2 3 5 5 4 3 4 6 7 6 6 6 7 6 6 6 6 4 4 4 3 3 3 3 3 3 3 3 3 3 3 3 3 3 3
1 2 2 1 2 2 1 1 2 2 3 4 5 3 1 3 4 6 6 7 7 7 7 6 6 6 4 3 3 3 3 3 3 3 3 4 3 3 3 3 3 3 3 3
2 2 3 3 1 2 2 2 2 2 3 3 5 5 2 2 5 6 7 8 8 8 7 6 6 6 5 4 4 4 4 4 3 3 3 4 3 3 3 3 3 3 3 3
2 2 3 2 2 1 2 2 2 2 2 4 5 5 1 3 7 7 8 9 8 8 8 7 6 6 5 5 4 4 4 4 3 3 3 3 3 3 3 4 4 3 3 3
2 3 5 6 4 2 5 5 5 5 5 6 9 12 10 10 10 10 9 9 8 8 8 8 7 6 6 5 5 4 4 4 4 3 3 3 4 4 4 4 4 4 3 3
2 4 5 9 9 8 9 9 9 10 10 9 11 12 13 11 10 10 10 9 9 9 9 8 8 7 7 6 5 5 5 4 4 4 4 4 4 4 4 4 4 4 3 3
1 3 3 6 6 8 11 13 12 13 13 14 16 15 10 9 8 9 9 8 8 8 8 9 8 8 7 6 6 5 5 5 4 4 4 4 4 4 4 4 4 4 3 3
3 3 3 4 4 6 9 9 10 7 8 9 10 9 8 9 9 9 9 8 7 8 8 8 8 7 7 7 6 6 5 5 4 4 4 4 3 3 4 4 3 3 4 3
4 3 2 3 3 6 2 1 5 8 9 10 10 10 8 9 10 8 7 7 8 8 8 8 7 7 7 7 6 5 5 4 4 4 4 4 4 4 4 3 4 4 3 3
4 4 3 3 5 8 5 2 3 5 7 7 9 10 9 9 8 5 4 6 7 8 8 7 6 6 6 6 6 5 4 4 4 4 4 4 4 4 4 4 4 4 3 3
2 3 4 3 5 6 2 2 1 2 5 2 5 7 7 6 6 5 6 8 8 7 6 6 5 5 5 6 5 5 4 4 5 5 5 5 4 4 4 4 4 3 3 3
4 4 6 7 7 8 2 2 4 4 3 2 4 6 5 5 6 7 8 8 7 7 6 5 5 5 5 5 4 4 4 5 5 5 5 5 4 4 4 4 3 3 3 3
7 6 7 6 7 7 4 5 5 4 3 3 4 5 6 7 8 8 8 7 7 6 5 5 4 5 5 5 4 4 5 5 5 5 5 5 5 4 3 3 3 3 2 2
8 7 5 8 7 3 6 6 5 3 4 5 5 6 6 7 8 8 7 7 6 5 5 4 4 5 5 5 4 4 5 5 5 4 5 5 5 4 4 3 3 3 3 2
6 4 5 7 10 9 9 9 7 6 6 6 6 6 6 8 8 7 6 6 6 5 4 3 4 4 4 5 5 4 4 4 4 4 4 4 4 4 4 4 3 3 3 2
6 7 6 9 10 9 9 9 9 8 8 8 7 6 7 7 7 6 6 6 5 4 3 3 3 3 4 4 4 4 4 4 4 4 4 4 4 4 4 4 4 4 3 3
8 9 8 8 6 6 6 5 6 8 8 8 7 7 6 5 6 6 5 4 4 3 3 3 3 3 4 4 4 4 4 4 3 3 4 3 3 3 3 3 4 5 4 6
Wind_Direction
73 197 235 250 247 257 260 261 269 277 285 276 269 273 277 277 271 275 278 277 282 287 298 301 297 291 277 273 279 263 232 229 220 213 222 227 236 249 263 229 201 198 207 205
185 243 273 277 259 249 248 264 276 285 290 282 281 279 273 270 263 270 282 292 295 301 311 314 315 307 294 278 273 251 236 234 225 222 223 230 238 250 257 226 206 205 205 209
232 293 297 242 250 258 257 256 276 289 300 276 288 274 248 263 255 291 297 299 309 308 309 308 306 302 299 294 278 253 251 251 237 217 187 208 239 279 282 254 224 213 213 211
290 295 275 260 264 271 267 269 275 285 289 284 289 282 263 268 269 297 310 310 309 316 316 306 300 303 300 295 284 273 276 262 233 201 197 209 221 247 268 261 241 223 222 219
290 312 293 269 281 275 272 292 282 276 267 274 255 258 271 267 277 287 297 311 312 321 324 314 314 316 315 311 308 307 300 285 267 221 219 235 236 252 272 274 256 256 235 224
280 287 298 296 304 276 276 272 256 239 244 257 246 241 275 276 294 300 302 315 317 317 330 331 343 342 338 335 326 317 298 301 310 285 249 246 243 250 260 261 265 266 258 244
308 262 331 313 314 323 316 293 273 240 234 253 214 245 265 339 337 321 316 320 325 321 332 335 342 341 341 340 333 301 296 305 307 302 270 260 254 244 241 240 238 250 250 256
299 294 8 355 321 306 308 292 278 283 290 301 246 253 283 355 338 333 329 332 336 335 340 337 333 332 330 332 328 325 312 290 291 291 285 273 269 256 248 244 240 240 246 252
282 290 9 349 329 305 257 226 319 287 288 279 265 277 282 323 334 340 343 343 339 336 339 335 332 328 329 331 329 322 311 302 298 295 289 277 269 268 264 254 258 256 252 254
280 275 299 324 273 31 327 178 212 234 287 284 284 272 298 317 330 332 338 335 332 334 334 332 329 324 328 331 329 322 312 311 316 308 295 288 282 280 279 265 258 265 264 263
252 255 290 276 252 267 184 192 226 239 275 281 294 295 18 310 327 328 332 333 330 329 328 329 328 328 327 331 331 329 325 323 322 320 318 311 310 306 295 281 274 270 269 265
224 252 265 261 287 312 252 234 203 248 254 254 277 285 73 325 325 326 325 328 328 328 328 330 332 333 334 332 329 325 324 318 318 316 312 321 320 315 307 300 295 280 269 264
183 214 275 252 196 190 244 245 244 250 252 245 260 276 63 327 325 326 324 326 328 329 330 333 336 337 336 332 326 324 322 313 316 315 313 316 312 312 308 301 293 288 276 273
200 226 238 261 294 260 262 256 235 219 237 253 252 274 292 310 320 322 321 323 327 329 330 331 331 333 336 336 331 325 320 318 322 319 311 311 312 307 301 296 289 287 283 272
213 244 250 265 274 268 262 257 238 229 239 251 270 277 289 305 310 312 313 318 325 327 331 332 330 332 336 339 335 333 329 329 332 323 319 315 311 307 302 299 297 293 290 286
194 236 261 268 267 269 269 259 246 244 248 254 269 279 291 302 305 308 312 317 318 320 326 328 328 329 330 332 332 332 330 329 328 323 318 316 314 312 306 304 302 298 293 296
185 189 238 268 304 288 265 244 226 230 233 241 254 274 306 306 304 305 308 310 308 313 320 322 321 322 325 326 326 325 322 324 325 320 318 318 316 312 311 309 305 303 302 304
180 183 226 278 294 253 275 110 224 237 247 239 258 281 295 303 305 298 299 305 309 313 318 319 320 322 323 325 327 324 323 327 325 324 325 325 327 323 317 315 313 310 308 307
206 196 213 239 268 275 274 233 213 231 262 245 257 278 295 313 305 295 323 319 311 310 312 314 318 317 319 322 325 328 332 334 335 336 332 327 327 326 323 320 316 315 309 309
157 197 213 219 248 258 283 123 160 215 267 251 257 278 300 317 305 312 330 322 317 317 315 319 323 322 321 325 328 334 338 340 340 336 329 326 327 322 320 318 316 316 319 309
177 194 214 226 245 266 272 147 166 222 297 335 277 281 285 273 286 310 314 314 315 317 318 320 322 323 324 327 331 334 337 339 335 332 328 328 328 325 324 322 322 327 330 333
195 194 202 202 225 253 155 160 208 265 327 305 296 287 280 283 297 303 304 307 312 316 319 322 323 326 330 334 336 334 336 336 337 337 335 338 340 340 336 337 338 338 338 340
215 214 213 212 233 286 184 218 251 274 276 286 288 290 282 285 291 297 302 306 306 310 314 319 320 325 331 336 337 334 333 336 340 344 344 347 348 352 351 350 346 343 346 348
224 209 230 253 259 259 253 253 255 254 263 275 280 282 278 280 286 291 296 300 305 306 307 315 317 323 331 338 341 338 335 337 342 348 349 352 355 359 0 358 353 350 348 347
229 188 220 251 267 277 257 244 251 260 263 270 277 276 272 275 279 282 287 293 300 301 304 305 310 317 326 335 340 343 346 351 356 356 355 356 357 357 1 3 360 352 346 339
213 205 213 245 245 243 272 270 260 258 259 263 270 276 276 268 270 277 280 287 292 296 301 304 313 320 327 336 343 348 352 357 357 356 355 357 358 355 356 356 359 9 0 359
Height
1505 1504 1501 1501 1502 1501 1499 1497 1495 1493 1496 1495 1488 1484 1481 1483 1483 1481 1481 1480 1480 1479 1477 1476 1476 1474 1473 1473 1473 1473 1473 1474 1475 1476 1477 1477 1477 1477 1477 1478 1478 1479 1481 1482
1504 1503 1504 1504 1503 1502 1500 1498 1494 1492 1494 1492 1486 1480 1477 1478 1479 1479 1479 1478 1476 1475 1474 1473 1472 1471 1470 1469 1470 1470 1470 1471 1472 1472 1473 1473 1473 1473 1474 1474 1475 1476 1477 1479
1502 1505 1505 1504 1502 1501 1498 1497 1495 1494 1492 1490 1487 1473 1472 1474 1476 1477 1476 1476 1475 1474 1472 1470 1469 1468 1468 1467 1467 1467 1467 1468 1469 1469 1470 1470 1470 1470 1471 1471 1471 1472 1474 1475
1505 1506 1505 1503 1501 1500 1495 1497 1497 1495 1492 1485 1487 1474 1465 1470 1471 1473 1474 1473 1473 1471 1470 1468 1467 1466 1465 1465 1465 1464 1464 1465 1465 1466 1466 1466 1466 1466 1468 1468 1467 1468 1470 1472
1504 1506 1505 1502 1502 1502 1498 1498 1497 1494 1492 1490 1485 1483 1461 1467 1468 1469 1471 1471 1471 1469 1468 1466 1465 1464 1463 1462 1462 1461 1462 1462 1462 1462 1463 1464 1464 1465 1465 1465 1464 1465 1466 1468
1506 1508 1507 1504 1503 1502 1500 1497 1495 1494 1491 1486 1479 1478 1460 1464 1467 1468 1470 1470 1470 1468 1466 1465 1463 1462 1462 1461 1460 1460 1460 1459 1459 1460 1461 1461 1461 1461 1461 1461 1461 1461 1462 1464
1504 1505 1506 1506 1502 1500 1499 1494 1486 1481 1479 1471 1480 1477 1466 1469 1472 1471 1470 1469 1468 1466 1465 1463 1461 1461 1459 1459 1459 1459 1458 1457 1457 1458 1458 1459 1458 1459 1458 1458 1458 1459 1459 1460
1502 1498 1505 1506 1504 1501 1500 1498 1491 1481 1471 1466 1477 1472 1466 1473 1473 1472 1470 1469 1467 1466 1464 1462 1461 1459 1458 1457 1457 1456 1455 1455 1455 1455 1455 1456 1456 1456 1456 1455 1455 1455 1455 1456
1503 1501 1506 1507 1507 1504 1500 1499 1501 1497 1494 1487 1468 1469 1468 1471 1472 1471 1469 1468 1467 1465 1463 1462 1460 1459 1457 1456 1456 1455 1454 1453 1453 1453 1453 1453 1453 1452 1452 1452 1452 1453 1453 1453
1510 1509 1506 1508 1507 1506 1505 1503 1501 1496 1487 1471 1462 1465 1464 1468 1470 1470 1469 1467 1466 1464 1463 1461 1460 1458 1457 1456 1455 1453 1452 1452 1451 1451 1451 1450 1450 1449 1450 1449 1449 1450 1450 1450
1512 1511 1507 1506 1505 1503 1505 1505 1502 1497 1495 1482 1466 1462 1469 1471 1471 1471 1469 1468 1466 1464 1462 1460 1458 1456 1455 1455 1454 1452 1451 1450 1449 1448 1449 1448 1447 1447 1447 1447 1447 1447 1446 1446
1513 1510 1505 1504 1507 1508 1505 1503 1502 1498 1497 1494 1481 1470 1472 1473 1473 1472 1470 1468 1466 1464 1462 1460 1457 1455 1453 1452 1452 1450 1449 1448 1447 1447 1447 1446 1445 1445 1444 1444 1444 1444 1444 1444
1513 1512 1503 1495 1504 1509 1507 1505 1505 1505 1500 1492 1482 1469 1472 1474 1472 1471 1470 1468 1465 1463 1461 1458 1456 1454 1453 1451 1450 1448 1447 1447 1445 1445 1444 1443 1443 1442 1442 1442 1442 1441 1441 1440
1512 1511 1506 1493 1491 1500 1503 1504 1504 1503 1496 1487 1481 1470 1469 1470 1471 1471 1470 1467 1465 1463 1460 1457 1455 1453 1451 1449 1448 1447 1446 1444 1443 1442 1441 1441 1440 1440 1440 1440 1439 1439 1438 1437
1511 1508 1508 1503 1502 1502 1500 1499 1500 1499 1492 1486 1475 1473 1470 1471 1472 1471 1469 1466 1464 1462 1459 1456 1454 1451 1450 1448 1446 1445 1443 1442 1441 1440 1439 1439 1438 1438 1437 1437 1437 1436 1435 1434
1511 1509 1509 1504 1502 1501 1498 1493 1493 1492 1489 1485 1479 1474 1471 1473 1472 1470 1468 1465 1463 1461 1458 1456 1453 1451 1448 1446 1445 1443 1442 1440 1439 1438 1438 1437 1436 1436 1435 1434 1434 1433 1432 1431
1510 1511 1507 1495 1501 1500 1486 1483 1486 1485 1483 1482 1476 1472 1471 1471 1470 1469 1467 1464 1462 1460 1458 1455 1452 1450 1448 1445 1443 1441 1440 1439 1438 1437 1436 1435 1434 1433 1433 1432 1431 1430 1429 1428
1509 1509 1507 1500 1501 1491 1476 1482 1481 1481 1479 1479 1475 1472 1472 1471 1469 1467 1465 1463 1460 1458 1456 1453 1451 1448 1446 1444 1442 1440 1439 1437 1436 1435 1434 1433 1432 1431 1430 1429 1429 1428 1426 1426
1507 1507 1505 1501 1492 1477 1475 1479 1481 1481 1475 1474 1473 1471 1470 1469 1466 1464 1463 1461 1459 1457 1454 1452 1450 1447 1445 1443 1441 1439 1437 1436 1435 1433 1432 1431 1430 1429 1428 1427 1426 1425 1424 1424
1508 1508 1505 1501 1491 1476 1470 1479 1479 1481 1472 1470 1470 1469 1468 1468 1463 1461 1461 1459 1457 1455 1452 1450 1448 1446 1443 1441 1439 1437 1436 1434 1433 1432 1430 1429 1428 1427 1426 1425 1424 1423 1422 1422
1506 1505 1502 1497 1490 1474 1473 1478 1480 1476 1467 1469 1468 1467 1467 1466 1464 1462 1459 1457 1455 1452 1450 1448 1446 1444 1442 1440 1438 1436 1435 1433 1432 1430 1429 1428 1427 1426 1424 1423 1423 1422 1421 1420
1493 1494 1496 1493 1488 1474 1474 1476 1474 1468 1468 1468 1467 1466 1465 1463 1461 1459 1456 1454 1452 1450 1447 1445 1443 1442 1440 1439 1437 1435 1434 1432 1431 1429 1428 1426 1425 1424 1423 1422 1421 1421 1420 1418
1488 1484 1481 1481 1473 1469 1470 1469 1468 1467 1467 1466 1465 1463 1462 1460 1458 1456 1454 1451 1449 1447 1445 1444 1442 1440 1439 1438 1436 1434 1433 1431 1429 1428 1426 1425 1424 1423 1422 1421 1420 1419 1418 1417
1482 1484 1482 1478 1468 1467 1467 1466 1465 1465 1464 1463 1462 1461 1459 1457 1455 1453 1451 1449 1447 1445 1444 1442 1441 1439 1438 1436 1435 1434 1432 1430 1428 1427 1425 1424 1423 1422 1422 1420 1419 1418 1417 1416
1473 1478 1477 1472 1465 1464 1462 1461 1461 1461 1460 1459 1458 1457 1455 1453 1452 1450 1448 1446 1444 1443 1442 1441 1440 1438 1437 1435 1434 1433 1431 1429 1428 1426 1425 1424 1423 1422 1421 1420 1419 1418 1417 1417
1467 1468 1467 1460 1459 1460 1458 1457 1457 1456 1455 1454 1453 1452 1451 1450 1448 1447 1445 1444 1442 1441 1440 1439 1438 1437 1436 1434 1433 1432 1430 1429 1427 1425 1424 1423 1422 1421 1420 1419 1418 1418 1417 1416